Location: Unspecified
(0.0000°N, 0.0000°E)
Time: 09:40:10
(UTC+00:00)

Vanguard 2 Rocket - Pass Details

Date: 16 October 2022
Orbit: 555 x 3321 km, 32.9° (Epoch: 29 November)

Event Time Altitude Azimuth Distance (km) Brightness Sun altitude
Exits shadow 02:41:27 11° 108° (ESE) 2,294 9.5 -45.4°
Drops below altitude 10° 02:41:31 10° 108° (ESE) 2,322 9.6 -45.3°
Sets 02:43:32 0° 113° (ESE) 3,070 10.4 -44.8°
